DECAYED

STARLINK-1878, 47163 (Decayed)

Orbit data source: Space-Track

STARLINK-1878, 47163 was a payload satellite owned by SpaceX/Seattle (US) in LEO that was launched on Wed, 25 Nov 2020 UTC via an FALCON 9 launch vehicle from the Air Force Eastern Test Range (AFETR). Payload-class satellites include a variety of spacecraft equipped with specific instruments for various scientific and technological missions. These include communications satellites like Starlink; space stations such as the ISS; scientific satellites like the Hubble; Earth observation satellites from companies like Planet Labs, Umbra, and HawkEye 360; GPS; miniature CubeSats for education and research; and military/defense satellites.

Not visible in the next 10 days
Identifier
47163, 2020-088AT
Orbit
Decayed
Country
Flag of USUS
Related business
Manufacturer
SpaceX/Seattle
Mission
Decayed Commercial Communications
Bus & Motor
STARLINK, Unknown motor
Mass
260 kg wet, ~248 kg dry
Launch date (UTC)
2020-11-25 (6 years ago)
Launch vehicle
FALCON 9
Launch site
Air Force Eastern Test Range (AFETR)
Object type
Payload
Rocket body
Debris
Shape & HBR
Box + 1 Pan, 10.1 m
Radar Cross Section
13.562 m², Large (>1 m²)

Expand to show TLE details & history
Last TLE update: 1 year ago

TLE from 1 year ago
0 STARLINK-1878
1 47163U 20088AT  25023.24754954  .12603424  12334-4  69620-3 0  9996
2 47163  53.0194 321.5611 0005271 187.4196 328.6658 16.42157572230536
Epoch: 2025-01-23T05:56Z
TLE epoch observation values (Epoch: 2025-01-23T05:56:28.280Z)
Latitude
18.95732°
Longitude
-85.28664°
Altitude
157.528 km
Speed
7.816 km/s
True Right ascension
08h 26m 38s
True Declination
18° 50' 32"
Sunlit
Object was in full shadow at epoch
Visualization orbit readout
Latitude
Unknown
Longitude
Unknown
Altitude
Unknown
Speed
Unknown
Apparent Right ascension
Unknown
Apparent Declination
Unknown
Sunlit
N/A
Visualization observer readout
Local Sidereal Time
21:31:44
Azimuth
Unknown
Elevation
Unknown
Doppler factor
Unknown
Orbital elements
Apogee altitude
163.808 km
Perigee altitude
156.915 km
Semi-major axis
6,538.499 km
Eccentricity
0.00053
Inclination
53.0194°
RAAN
321.5611°
Arg. of periapsis
187.4196°
True anomaly
328.63437°
Mean anomaly
328.6658°
Eccentric anomaly
328.65009°
Mean motion
4.10512 °/min
Orbital period
87.7 mins
BSTAR
0.0006962
Loading maneuver chart data...
Computing Atmospheric mass density...

Documentation

Showing up to 5 results
|